sat.trackr.live / text

‹ back to catalog

STARLINK-36290

NORAD 68516 · 2026-068J

PAYLOAD ACTIVE UNKNOWN

§ Identity

Operator
Country
US
Launch date
2026-03-30
Launch site
AFETR
Launch vehicle
Mass (kg)
RCS (m²)

Purposes: comms

External: N2YO · Heavens-Above · Gunter

§ Orbital elements

Epoch: 2026-09-20T03:10:22.797120Z

Period
93.85 min
Inclination
53.1543°
Eccentricity
0.0002053
Mean motion
15.34398130 rev/d
Perigee alt
461.3 km
Apogee alt
464.1 km
Semi-major
6,840.8 km
B*
2.8932e-4
RAAN
301.2152°
Arg perigee
91.0482°
Mean anomaly
269.0755°
Rev number
2,678

§ Raw data

STARLINK-362901 68516U 26068J   26263.13220830  .00009410  00000+0  28932-3 0  99962 68516  53.1543 301.2152 0002053  91.0482 269.0755 15.34398130 26781

JSON: /api/v1/satellites/68516 · /tle

For live sub-satellite position, see the globe view (requires WebGL).

§ Visibility from observer

Set your observer location to see the next 7 days of passes ≥ 10°. The values pass through the URL so the page stays shareable.

No JS? Fill the form by hand. The geolocation button needs JavaScript.